TimeEDT,TemperatureF,Dew PointF,Humidity,Sea Level PressureIn,VisibilityMPH,Wind Direction,Wind SpeedMPH,Gust SpeedMPH,PrecipitationIn,Events,Conditions,WindDirDegrees,DateUTC
2:52 AM,62.1,51.1,67,30.06,10.0,Calm,Calm,-,N/A,,Clear,0,2012-10-26 06:52:00
3:52 AM,59.0,51.1,75,30.06,10.0,Variable,3.5,-,N/A,,Clear,0,2012-10-26 07:52:00
4:52 AM,61.0,52.0,72,30.06,10.0,SSE,4.6,-,N/A,,Clear,160,2012-10-26 08:52:00
5:52 AM,61.0,52.0,72,30.07,10.0,SSE,9.2,-,N/A,,Partly Cloudy,150,2012-10-26 09:52:00
6:52 AM,61.0,53.1,75,30.08,10.0,Variable,5.8,-,N/A,,Clear,0,2012-10-26 10:52:00
7:52 AM,60.1,53.1,78,30.09,10.0,SE,3.5,-,N/A,,Clear,130,2012-10-26 11:52:00
8:52 AM,64.0,54.0,70,30.10,10.0,Calm,Calm,-,N/A,,Mostly Cloudy,0,2012-10-26 12:52:00
9:52 AM,64.9,54.0,68,30.10,10.0,Variable,3.5,-,N/A,,Partly Cloudy,0,2012-10-26 13:52:00
11:52 AM,71.1,52.0,51,30.08,10.0,SSE,5.8,-,N/A,,Clear,150,2012-10-26 15:52:00
12:52 PM,72.0,51.1,48,30.04,10.0,ENE,4.6,-,N/A,,Overcast,60,2012-10-26 16:52:00
1:52 PM,71.1,50.0,47,30.02,10.0,ENE,4.6,-,N/A,,Overcast,60,2012-10-26 17:52:00
2:52 PM,73.0,48.9,42,29.99,10.0,ESE,4.6,-,N/A,,Partly Cloudy,120,2012-10-26 18:52:00
3:52 PM,73.9,48.0,40,29.97,10.0,East,3.5,-,N/A,,Clear,90,2012-10-26 19:52:00
4:52 PM,73.0,48.0,41,29.96,10.0,Calm,Calm,-,N/A,,Partly Cloudy,0,2012-10-26 20:52:00
5:52 PM,71.1,46.9,42,29.96,10.0,Calm,Calm,-,N/A,,Clear,0,2012-10-26 21:52:00
6:52 PM,69.1,46.9,45,29.98,10.0,Calm,Calm,-,N/A,,Scattered Clouds,0,2012-10-26 22:52:00
7:52 PM,66.9,48.0,51,29.99,10.0,SE,6.9,-,N/A,,Clear,140,2012-10-26 23:52:00
8:52 PM,63.0,51.1,65,29.99,10.0,SE,11.5,-,N/A,,Clear,140,2012-10-27 00:52:00
9:52 PM,61.0,50.0,67,29.99,10.0,SE,9.2,18.4,N/A,,Mostly Cloudy,130,2012-10-27 01:52:00
10:52 PM,59.0,51.1,75,29.97,10.0,SE,11.5,19.6,N/A,,Clear,130,2012-10-27 02:52:00
11:52 PM,57.9,51.1,78,29.96,10.0,Variable,6.9,17.3,N/A,,Clear,0,2012-10-27 03:52:00